Weather in Kiyasovo

Russia / Udmurt Republic     56°20′45″N   53°07′24″E
temp.,
°C
wind,
m/s
gust,
m/s
humid.,
%
clouds,
%
prec.,
mm/h
press.,
hPa
HPBL,
m
8 august, mon
mon801:00+20nne116419 0.0 102011
04:00+18nnw11715 0.0 102011
07:00+21n117049 0.0 102085
10:00+26nnw115747 0.0 1020499
13:00+29nw22475 0.0 10201797
16:00+27nnw225175 0.0 1019121
19:00+26ne125737 0.0 101930
22:00+21n226889 0.0 101911
9 august, tue
tue901:00+20nne226956 0.0 101912
04:00+18n227414 0.0 101914
07:00+21ne237111 0.0 1020109
10:00+26nne225682 0.0 1019507
13:00+29ne114599 0.0 10191372
16:00+29sse1143100 0.0 10181718
19:00+23n1271100 0.0 101831
22:00+23nnw1163100 0.1 101811
10 august, wed
wed1001:00+20n117786 1.7 101811
04:00+18wnw1181100 1.7 101711
07:00+21ssw1174100 0.0 101757
10:00+25wsw125940 0.0 1017504
13:00+28wsw224899 0.0 10171702
16:00+29sw334174 0.0 10162129
19:00+25nw126311 0.0 101620
22:00+18ene248759 0.7 101669
11 august, thu
thu1101:00+17n51191100 1.6 1016285
04:00+17nw249498 2.0 1016168
07:00+18nw3692100 1.3 1018423
10:00+18nw567199 1.3 1019743
13:00+21nw6752100 0.0 10191247
16:00+21nw784914 0.0 10191899
19:00+17nw59670 0.0 1020708
22:00+13nw37860 0.0 1021159
12 august, fri
fri1201:00+12w22910 0.0 102214
04:00+11w2289100 0.0 102222
07:00+14wsw377798 0.0 1022228
10:00+19w5856100 0.0 1022721
13:00+23w684864 0.0 10211847
16:00+23w68455 0.0 10191890
19:00+20w48620 0.0 1019190
22:00+16w39710 0.0 1020172